Starlink 1392

operational
NORAD ID: 45677 Int'l Des: 2020-035 Owner: SPXS Country: US Constellation: starlink
LEOCIRCULARSTARLINK_TYPE

关于 Starlink 1392

正在加载描述...

实时位置

正在加载3D地球...

即将过境

高度历史

Altitude vs Time

uPlot chart will show altitude changes over time

两行轨道根数

1 45677U 20035W 25351.97292385 .00002276 00000-0 17164-3 0 9999
2 45677 53.0552 73.4615 0001096 86.1297 273.9818 15.06403105306413
Epoch: Dec 17, 2025 • Age: 17 hours

当前状态

高度 555.1 km
速度 7.58 km/s
星下点 -25.73°S, 59.29°W
发射日期 Jun 4, 2020
运行时间 5.5 years
类型 internet

技术详情

分类 Payload
质量 260.00 kg
干质量 248.00 kg
总质量 260.00 kg
长度 0.20 m
直径 2.80 m
跨度 9.00 m
形状 Box + pan
制造商 SPXS
平台类型 Starlink
阶段状态 In Orbit
所有者/国家 SPXS/US

大型星座

Loading constellations...